Tracking 19969 objects as of 13-Nov-2019
Live streaming from Space Station
objects crossing your sky now
Track the group of recently launched Starlink satellites

COSMOS 1174 DEB

Track COSMOS 1174 DEB now!
10-day predictions


NORAD ID: 12354
Int'l Code: 1980-030Y
Perigee: 397.2 km
Apogee: 993.6 km
Inclination: 66.1 °
Period: 98.5 minutes
Semi major axis: 7066 km
RCS: 0.107 m2 (medium)
Launch date: April 18, 1980
Source: Commonwealth of Independent States (former USSR) (CIS)
Launch site: TYURATAM MISSILE AND SPACE COMPLEX (TTMTR)

Note: This is SATELLITE DEBRIS
aabbcc
Your satellite tracking list
Your tracking list is empty




NASA's NSSDC Master Catalog

Two Line Element Set (TLE):
1 12354U 80030Y   19316.02402966 +.00001342 +00000-0 +83682-4 0  9996
2 12354 066.1065 287.2210 0421988 334.3359 023.7325 14.61526307042389
Source of the keplerian elements: AFSPC